FW7092 Weather Reports


time (UTC)temp
C
wind
direction
speed
KPH
gust
KPH
rain 1hr
cm
rain 24hr
cm
rain mn
cm
humidity
%
barometer
mb
20260504110415 10 202 11.3 14.5 0.00 0.00 0.00 76 1009.4
20260504100332 9 225 11.3 12.9 0.00 0.00 0.00 76 1009.2
20260504081726 10 208 12.9 16.1 0.00 0.00 0.00 72 1009.8
20260504081222 10 205 17.7 20.9 0.00 0.00 0.00 72 1010.2
20260504080718 10 209 14.5 17.7 0.00 0.00 0.00 71 1010.1
20260504080215 10 214 14.5 22.5 0.00 0.00 0.00 71 1010.2
20260504070142 10 217 14.5 16.1 0.00 0.00 0.00 70 1010.8
20260504050531 10 202 12.9 16.1 0.00 0.00 0.00 68 1012.5
20260504045525 10 219 12.9 17.7 0.00 0.00 0.00 67 1012.4
20260504045020 10 197 12.9 14.5 0.00 0.00 0.00 68 1012.4
20260504044518 10 219 12.9 14.5 0.00 0.00 0.00 67 1012.5
20260504044015 11 223 12.9 17.7 0.00 0.00 0.00 67 1012.6
20260504043512 10 209 14.5 16.1 0.00 0.00 0.00 68 1012.6
20260504043009 11 213 14.5 17.7 0.00 0.00 0.00 66 1012.5
20260504042506 11 211 14.5 20.9 0.00 0.00 0.00 66 1012.6
20260504042003 11 210 12.9 17.7 0.00 0.00 0.00 67 1012.6
20260504041459 11 215 11.3 16.1 0.00 0.00 0.00 66 1012.8
20260504040955 10 206 12.9 17.7 0.00 0.00 0.00 67 1012.8
20260504040453 10 196 9.7 16.1 0.00 0.00 0.00 67 1012.9
20260504035948 10 204 9.7 14.5 0.00 0.00 0.00 68 1012.8
20260504035446 10 204 11.3 16.1 0.00 0.00 0.00 68 1012.9
20260504034942 10 202 8.0 12.9 0.00 0.00 0.00 69 1012.8
20260504034440 10 196 8.0 12.9 0.00 0.00 0.00 70 1012.9
20260504033937 10 213 11.3 16.1 0.00 0.00 0.00 69 1013.0
20260504033435 10 195 11.3 12.9 0.00 0.00 0.00 70 1013.2
20260504032932 10 217 11.3 16.1 0.00 0.00 0.00 70 1013.2
20260504032428 10 205 9.7 14.5 0.00 0.00 0.00 70 1013.4
20260504031925 10 221 11.3 16.1 0.00 0.00 0.00 70 1013.4
20260504031422 10 210 8.0 16.1 0.00 0.00 0.00 71 1013.3
20260504030919 10 206 11.3 14.5 0.00 0.00 0.00 71 1013.4
20260504030416 10 203 9.7 12.9 0.00 0.00 0.00 72 1013.3
20260504025912 10 200 8.0 12.9 0.00 0.00 0.00 72 1013.6
20260504025409 10 197 8.0 12.9 0.00 0.00 0.00 71 1013.6
20260504024906 10 212 9.7 12.9 0.00 0.00 0.00 72 1013.7
20260504024403 10 198 6.4 11.3 0.00 0.00 0.00 74 1013.6
20260504023900 10 195 8.0 11.3 0.00 0.00 0.00 73 1013.7
20260504023356 10 203 3.2 8.0 0.00 0.00 0.00 74 1013.7
20260504022852 10 186 8.0 9.7 0.00 0.00 0.00 74 1013.9
20260504022349 9 204 3.2 4.8 0.00 0.00 0.00 74 1013.9
20260504021845 10 219 6.4 9.7 0.00 0.00 0.00 74 1013.8
20260504021342 9 207 6.4 8.0 0.00 0.00 0.00 74 1013.8
20260504020839 10 205 8.0 9.7 0.00 0.00 0.00 73 1013.9
20260504020336 10 211 6.4 8.0 0.00 0.00 0.00 74 1014.0
20260504015832 10 199 4.8 8.0 0.00 0.00 0.00 73 1013.9
20260504015328 10 212 4.8 9.7 0.00 0.00 0.00 73 1013.9
20260504014825 10 207 6.4 9.7 0.00 0.00 0.00 73 1013.8
20260504014321 10 204 6.4 8.0 0.00 0.00 0.00 73 1013.9
20260504013819 10 203 6.4 11.3 0.00 0.00 0.00 72 1014.0
20260504013316 10 212 8.0 9.7 0.00 0.00 0.00 73 1014.0
20260504012813 10 211 8.0 11.3 0.00 0.00 0.00 73 1014.0
20260504012311 10 210 9.7 9.7 0.00 0.00 0.00 73 1013.8
20260504011808 10 208 6.4 9.7 0.00 0.00 0.00 74 1013.9
20260504011304 10 206 6.4 9.7 0.00 0.00 0.00 73 1014.1
20260504010800 10 208 8.0 9.7 0.00 0.00 0.00 74 1014.0
20260504010256 10 217 6.4 11.3 0.00 0.00 0.00 74 1014.1
20260504005753 10 214 11.3 14.5 0.00 0.00 0.00 73 1014.0
20260504005250 10 216 11.3 12.9 0.00 0.00 0.00 73 1014.2
20260504004747 10 213 8.0 12.9 0.00 0.00 0.00 72 1014.3
20260504004244 10 212 11.3 16.1 0.00 0.00 0.00 71 1014.1
20260504003741 10 224 12.9 14.5 0.00 0.00 0.00 71 1014.3
20260504003238 10 221 8.0 12.9 0.00 0.00 0.00 71 1014.2
20260504002734 10 210 11.3 16.1 0.00 0.00 0.00 70 1014.0
20260504002231 11 217 16.1 17.7 0.00 0.00 0.00 69 1014.2
20260504001729 11 207 11.3 12.9 0.00 0.00 0.00 70 1014.2
20260504001226 11 235 11.3 20.9 0.00 0.00 0.00 69 1014.2
20260504000723 11 221 12.9 17.7 0.00 0.00 0.00 69 1014.3
20260504000219 11 207 17.7 22.5 0.00 0.00 0.00 68 1014.3
20260503235718 11 196 14.5 22.5 0.00 0.00 0.00 68 1014.5
20260503235215 11 239 14.5 16.1 0.00 0.00 0.00 69 1014.6
20260503234713 11 236 16.1 20.9 0.00 0.00 0.00 68 1014.7
20260503234210 11 221 20.9 29.0 0.00 0.00 0.00 67 1014.5
20260503233707 11 208 17.7 22.5 0.00 0.00 0.00 67 1014.7
20260503233203 11 233 14.5 24.1 0.00 0.00 0.00 68 1014.6
20260503232700 11 207 17.7 29.0 0.00 0.00 0.00 67 1014.5
20260503232157 11 214 19.3 25.7 0.00 0.00 0.00 67 1014.8
20260503231655 11 245 22.5 33.8 0.00 0.00 0.00 66 1014.7
20260503231151 12 250 22.5 33.8 0.00 0.00 0.00 66 1014.7
20260503230648 12 239 24.1 37.0 0.00 0.00 0.00 65 1014.4
20260503230145 13 238 27.4 38.6 0.00 0.00 0.00 62 1014.4
20260503225642 13 247 25.7 33.8 0.00 0.00 0.00 61 1014.4
20260503225142 13 254 22.5 33.8 0.00 0.00 0.00 61 1014.3
20260503224640 14 258 29.0 35.4 0.00 0.00 0.00 59 1014.3
20260503224138 15 259 27.4 37.0 0.00 0.00 0.00 57 1014.2
20260503223636 15 241 22.5 33.8 0.00 0.00 0.00 58 1014.1
20260503223131 15 237 30.6 40.2 0.00 0.00 0.00 56 1014.2
20260503222629 15 238 30.6 38.6 0.00 0.00 0.00 53 1014.1
20260503222126 16 220 19.3 27.4 0.00 0.00 0.00 49 1014.0
20260503221625 16 244 19.3 27.4 0.00 0.00 0.00 46 1014.0
20260503221122 16 238 22.5 33.8 0.00 0.00 0.00 46 1014.1
20260503220619 16 252 22.5 33.8 0.00 0.00 0.00 45 1014.1
20260503220115 15 246 24.1 32.2 0.00 0.00 0.00 46 1014.0
20260503215612 15 248 27.4 32.2 0.00 0.00 0.00 44 1013.9
20260503215109 16 223 24.1 33.8 0.00 0.00 0.00 45 1014.2
20260503214608 16 228 22.5 25.7 0.00 0.00 0.00 45 1014.0
20260503214103 16 241 22.5 33.8 0.00 0.00 0.00 45 1014.2
20260503213602 16 222 24.1 43.5 0.00 0.00 0.00 45 1014.1
20260503213058 15 212 27.4 32.2 0.00 0.00 0.00 45 1014.2
20260503212556 16 230 20.9 29.0 0.00 0.00 0.00 46 1014.2
20260503212053 15 237 20.9 33.8 0.00 0.00 0.00 44 1014.1
20260503211550 15 212 20.9 35.4 0.00 0.00 0.00 48 1014.3
20260503211045 15 204 20.9 35.4 0.00 0.00 0.00 46 1014.3
20260503210543 16 225 17.7 24.1 0.00 0.00 0.00 46 1014.1
20260503210038 16 228 27.4 33.8 0.00 0.00 0.00 43 1014.4
20260503205535 16 243 22.5 37.0 0.00 0.00 0.00 45 1014.1
20260503205032 16 214 33.8 40.2 0.00 0.00 0.00 42 1014.3
20260503204529 16 248 25.7 37.0 0.00 0.00 0.00 45 1014.4
20260503204026 16 215 27.4 29.0 0.00 0.00 0.00 43 1014.4
20260503203523 16 229 32.2 38.6 0.00 0.00 0.00 43 1014.6
20260503203020 16 222 27.4 40.2 0.00 0.00 0.00 44 1014.5
20260503202518 16 229 29.0 38.6 0.00 0.00 0.00 44 1014.6
20260503202015 16 218 22.5 35.4 0.00 0.00 0.00 44 1014.5
20260503201514 16 243 32.2 40.2 0.00 0.00 0.00 42 1014.7
20260503201010 16 230 29.0 35.4 0.00 0.00 0.00 43 1014.7
20260503200506 16 231 22.5 32.2 0.00 0.00 0.00 43 1014.6
20260503200003 16 230 22.5 32.2 0.00 0.00 0.00 43 1014.8
20260503195500 16 236 17.7 29.0 0.00 0.00 0.00 45 1014.7
20260503194957 16 221 25.7 37.0 0.00 0.00 0.00 44 1014.8
20260503194455 16 209 27.4 35.4 0.00 0.00 0.00 44 1014.8
20260503193949 16 233 25.7 37.0 0.00 0.00 0.00 44 1015.0
20260503193445 16 234 22.5 35.4 0.00 0.00 0.00 46 1015.1
20260503192941 16 237 29.0 38.6 0.00 0.00 0.00 44 1014.8
20260503192437 16 235 25.7 29.0 0.00 0.00 0.00 44 1015.2
20260503191933 16 239 22.5 32.2 0.00 0.00 0.00 45 1015.2
20260503191431 16 239 22.5 40.2 0.00 0.00 0.00 48 1015.4
20260503190927 16 217 27.4 33.8 0.00 0.00 0.00 47 1015.5
20260503190425 16 241 22.5 29.0 0.00 0.00 0.00 44 1015.4
20260503185921 16 220 30.6 35.4 0.00 0.00 0.00 45 1015.5
20260503185418 16 227 29.0 35.4 0.00 0.00 0.00 46 1015.5
20260503184917 16 211 29.0 35.4 0.00 0.00 0.00 45 1015.8
20260503184414 16 238 20.9 32.2 0.00 0.00 0.00 48 1016.0
20260503183910 16 225 30.6 37.0 0.00 0.00 0.00 44 1015.9
20260503183407 16 211 19.3 29.0 0.00 0.00 0.00 42 1015.9
20260503182904 16 232 20.9 35.4 0.00 0.00 0.00 48 1016.0
20260503182403 16 241 27.4 29.0 0.00 0.00 0.00 46 1016.2
20260503181859 16 255 20.9 29.0 0.00 0.00 0.00 46 1016.0
20260503181356 15 197 22.5 27.4 0.00 0.00 0.00 46 1016.3
20260503180853 15 244 22.5 32.2 0.00 0.00 0.00 46 1016.2
20260503180351 15 234 22.5 33.8 0.00 0.00 0.00 44 1016.4
20260503175847 16 246 24.1 35.4 0.00 0.00 0.00 46 1016.4
20260503175345 16 204 22.5 40.2 0.00 0.00 0.00 47 1016.3
20260503174840 15 230 20.9 35.4 0.00 0.00 0.00 47 1016.5
20260503174339 16 231 20.9 29.0 0.00 0.00 0.00 46 1016.5
20260503173834 16 248 22.5 35.4 0.00 0.00 0.00 47 1016.7
20260503173331 16 246 30.6 35.4 0.00 0.00 0.00 42 1016.6
20260503172827 16 192 19.3 29.0 0.00 0.00 0.00 46 1016.6
20260503172325 16 242 19.3 33.8 0.00 0.00 0.00 49 1016.8
20260503171821 15 252 27.4 37.0 0.00 0.00 0.00 46 1016.9
20260503171318 15 224 24.1 33.8 0.00 0.00 0.00 48 1016.8
20260503170815 16 244 22.5 29.0 0.00 0.00 0.00 49 1016.9
20260503170312 15 233 24.1 29.0 0.00 0.00 0.00 47 1016.9
20260503150704 12 242 19.3 22.5 0.00 0.00 0.00 56 1018.1
20260503150200 12 231 14.5 20.9 0.00 0.00 0.00 59 1018.2
20260503140124 10 231 20.9 33.8 0.00 0.00 0.00 62 1018.6
20260503131054 8 235 16.1 20.9 0.00 0.00 0.00 64 1018.8
20260503130551 8 231 14.5 22.5 0.00 0.00 0.00 66 1018.7